Simultaneous Nadir Overpasses (SNOs) Predictions

Prediction of SNOs between AURA and NPP Satellite Orbit:

Table of predicted SNOs for the next 14.0 days since TLE Epoch: 3/16/2018
Index Date (AURA) Time (AURA) Lat,Lon (AURA) SZA (AURA ) Date (NPP) Time (NPP) Lat,Lon (NPP) SZA (NPP ) Distance(km) Time Diff (sec)
1 03/19/2018 12:15:01 -79.71, 74.72 87.15 03/19/2018 12:14:57 -79.72, 74.82 87.17 2.02 4
2 03/19/2018 13:04:07 80.39,-111.87 91.74 03/19/2018 13:05:21 80.30,-111.73 91.68 9.59 74
3 03/22/2018 03:42:06 79.57, 21.97 91.99 03/22/2018 03:41:12 79.58, 22.10 92.01 2.73 54
4 03/22/2018 04:31:29 -79.74,-169.21 88.27 03/22/2018 04:31:53 -79.73,-169.30 88.27 2.01 24
5 03/24/2018 19:58:34 79.59, 137.98 90.89 03/24/2018 19:58:08 79.59, 137.94 90.92 0.90 26
6 03/24/2018 20:47:55 -79.83, -52.64 89.48 03/24/2018 20:48:46 -79.83, -52.58 89.53 1.22 51
7 03/27/2018 11:27:08 -75.49, 68.14 85.07 03/27/2018 11:25:54 -75.76, 66.75 84.86 48.51 74
8 03/27/2018 12:14:58 79.72,-105.24 89.64 03/27/2018 12:14:59 79.72,-105.11 89.61 2.69 1
9 03/30/2018 03:42:06 -79.51,-158.46 91.12 03/30/2018 03:41:18 -79.50,-158.57 91.06 2.53 48




NCC Satellite Simultaneous Nadir Overpasses (SNOs) Prediction Service
